TimeEDT,TemperatureF,Dew PointF,Humidity,Sea Level PressureIn,VisibilityMPH,Wind Direction,Wind SpeedMPH,Gust SpeedMPH,PrecipitationIn,Events,Conditions,WindDirDegrees,DateUTC
12:53 AM,68.0,66.0,93,30.20,9.0,Calm,Calm,-,N/A,,Partly Cloudy,0,2013-07-15 04:53:00
1:53 AM,69.1,66.9,93,30.19,7.0,Calm,Calm,-,N/A,,Mostly Cloudy,0,2013-07-15 05:53:00
2:53 AM,66.9,64.9,93,30.19,6.0,Calm,Calm,-,N/A,,Clear,0,2013-07-15 06:53:00
3:17 AM,66.2,64.4,94,30.22,1.8,Calm,Calm,-,N/A,,Clear,0,2013-07-15 07:17:00
3:25 AM,66.2,64.4,94,30.22,2.0,Calm,Calm,-,N/A,,Partly Cloudy,0,2013-07-15 07:25:00
3:37 AM,66.2,64.4,94,30.22,3.0,Calm,Calm,-,N/A,,Mostly Cloudy,0,2013-07-15 07:37:00
3:48 AM,66.2,64.4,94,30.22,1.8,Calm,Calm,-,N/A,,Overcast,0,2013-07-15 07:48:00
3:53 AM,66.0,64.9,96,30.19,2.0,Calm,Calm,-,N/A,,Overcast,0,2013-07-15 07:53:00
4:14 AM,66.2,66.2,100,30.23,4.0,Calm,Calm,-,N/A,,Overcast,0,2013-07-15 08:14:00
4:21 AM,66.2,64.4,94,30.22,1.8,Calm,Calm,-,N/A,,Overcast,0,2013-07-15 08:21:00
4:29 AM,68.0,66.2,94,30.23,3.0,Calm,Calm,-,N/A,,Overcast,0,2013-07-15 08:29:00
4:46 AM,68.0,66.2,94,30.23,1.5,Calm,Calm,-,N/A,,Overcast,0,2013-07-15 08:46:00
4:53 AM,68.0,66.9,96,30.19,0.5,Calm,Calm,-,N/A,Fog,Fog,0,2013-07-15 08:53:00
5:04 AM,68.0,66.2,94,30.23,1.0,Calm,Calm,-,N/A,,Mist,0,2013-07-15 09:04:00
5:12 AM,68.0,66.2,94,30.23,0.8,Calm,Calm,-,N/A,,Mist,0,2013-07-15 09:12:00
5:42 AM,68.0,66.2,94,30.23,1.0,Calm,Calm,-,N/A,,Overcast,0,2013-07-15 09:42:00
5:53 AM,68.0,66.9,96,30.20,1.0,Calm,Calm,-,N/A,,Overcast,0,2013-07-15 09:53:00
6:12 AM,66.2,66.2,100,30.23,1.0,Calm,Calm,-,N/A,,Mist,0,2013-07-15 10:12:00
6:53 AM,68.0,68.0,100,30.20,1.0,Calm,Calm,-,0.01,,Overcast,0,2013-07-15 10:53:00
7:53 AM,70.0,68.0,93,30.22,1.0,Calm,Calm,-,N/A,,Overcast,0,2013-07-15 11:53:00
8:00 AM,69.8,68.0,94,30.25,2.0,Calm,Calm,-,N/A,,Overcast,0,2013-07-15 12:00:00
8:26 AM,73.4,69.8,88,30.24,7.0,Calm,Calm,-,N/A,,Partly Cloudy,0,2013-07-15 12:26:00
8:53 AM,75.9,69.1,79,30.21,10.0,Calm,Calm,-,N/A,,Partly Cloudy,0,2013-07-15 12:53:00
9:53 AM,81.0,70.0,69,30.19,10.0,Calm,Calm,-,N/A,,Clear,0,2013-07-15 13:53:00
10:53 AM,86.0,66.9,53,30.17,10.0,WNW,6.9,-,N/A,,Clear,300,2013-07-15 14:53:00
11:53 AM,89.1,66.0,46,30.17,10.0,West,8.1,-,N/A,,Partly Cloudy,270,2013-07-15 15:53:00
12:53 PM,91.0,66.0,44,30.14,10.0,NW,8.1,-,N/A,,Partly Cloudy,320,2013-07-15 16:53:00
1:53 PM,91.9,64.0,39,30.13,10.0,NW,11.5,16.1,N/A,,Clear,310,2013-07-15 17:53:00
2:53 PM,91.9,62.1,37,30.12,10.0,NNW,5.8,-,N/A,,Partly Cloudy,330,2013-07-15 18:53:00
3:53 PM,93.0,61.0,34,30.11,10.0,WNW,8.1,16.1,N/A,,Clear,300,2013-07-15 19:53:00
4:53 PM,91.9,61.0,35,30.10,10.0,WNW,9.2,-,N/A,,Partly Cloudy,300,2013-07-15 20:53:00
5:53 PM,93.0,62.1,36,30.09,10.0,NNW,3.5,-,N/A,,Clear,340,2013-07-15 21:53:00
6:53 PM,91.0,63.0,39,30.09,10.0,NNW,3.5,-,N/A,,Clear,330,2013-07-15 22:53:00
7:53 PM,86.0,64.9,49,30.10,10.0,North,4.6,-,N/A,,Clear,350,2013-07-15 23:53:00
8:53 PM,75.0,66.9,76,30.12,10.0,Calm,Calm,-,N/A,,Clear,0,2013-07-16 00:53:00
9:53 PM,70.0,64.9,84,30.14,10.0,Calm,Calm,-,N/A,,Clear,0,2013-07-16 01:53:00
10:53 PM,70.0,64.9,84,30.14,10.0,Calm,Calm,-,N/A,,Clear,0,2013-07-16 02:53:00
11:53 PM,68.0,64.9,90,30.14,10.0,Calm,Calm,-,N/A,,Clear,0,2013-07-16 03:53:00